EW0624 Weather Reports


time (UTC)temp
F
wind
direction
speed
knots
gust
knots
rain 1hr
in
rain 24hr
in
rain mn
in
humidity
%
barometer
mb
20260901225904 66 28 0.9 2.6 0.00 0.00 0.00 95 1021.1
20260901225404 66 26 0.9 2.6 0.00 0.00 0.00 94 1021.1
20260901224914 66 26 1.7 4.3 0.00 0.00 0.00 94 1021.2
20260901223906 66 25 2.6 7.8 0.00 0.00 0.00 94 1021.3
20260901222914 66 30 0.9 2.6 0.00 0.00 0.00 94 1021.3
20260901222404 66 36 1.7 2.6 0.00 0.00 0.00 94 1021.2
20260901221404 66 42 0.9 5.2 0.00 0.00 0.00 94 1021.3
20260901220903 66 41 2.6 6.1 0.00 0.00 0.00 93 1021.3
20260901220404 66 47 1.7 2.6 0.00 0.00 0.00 93 1021.2
20260901215904 66 51 0.9 2.6 0.00 0.00 0.00 93 1021.3
20260901215405 67 67 1.7 4.3 0.00 0.00 0.00 93 1021.3
20260901214904 67 46 0.0 2.6 0.00 0.00 0.00 93 1021.3
20260901214404 67 51 0.9 5.2 0.00 0.00 0.00 93 1021.2
20260901213404 67 44 0.0 1.7 0.00 0.00 0.00 93 1021.2
20260901212905 66 61 0.0 1.7 0.00 0.00 0.00 93 1021.2
20260901212404 67 61 0.9 2.6 0.00 0.00 0.00 93 1021.2
20260901211904 66 62 0.9 1.7 0.00 0.00 0.00 93 1021.2
20260901211404 66 61 0.0 1.7 0.00 0.00 0.00 93 1021.2
20260901210904 67 61 0.0 2.6 0.00 0.00 0.00 93 1021.2
20260901210404 67 61 0.9 2.6 0.00 0.00 0.00 93 1021.1
20260901205904 67 58 0.9 2.6 0.00 0.00 0.00 92 1021.1
20260901205405 67 57 2.6 2.6 0.00 0.00 0.00 92 1021.1
20260901204904 67 55 0.0 2.6 0.00 0.00 0.00 92 1021.2
20260901204404 67 72 0.0 2.6 0.00 0.00 0.00 92 1021.1
20260901203904 67 67 0.9 4.3 0.00 0.00 0.00 92 1021.1
20260901203404 67 67 3.5 5.2 0.00 0.00 0.00 92 1021.0
20260901202404 67 42 1.7 4.3 0.00 0.00 0.00 92 1021.2
20260901201904 67 66 1.7 4.3 0.00 0.00 0.00 92 1021.1
20260901201404 67 5 0.9 4.3 0.00 0.00 0.00 91 1021.1
20260901200904 67 29 1.7 4.3 0.00 0.00 0.00 91 1021.1
20260901200405 67 355 2.6 5.2 0.00 0.00 0.00 91 1021.1
20260901195904 67 348 1.7 2.6 0.00 0.00 0.00 91 1021.1
20260901195404 67 17 1.7 7.0 0.00 0.00 0.00 91 1021.1
20260901194904 67 29 1.7 6.1 0.00 0.00 0.00 91 1021.0
20260901193904 67 40 1.7 4.3 0.00 0.00 0.00 91 1020.8
20260901193404 67 29 0.9 4.3 0.00 0.00 0.00 91 1020.7
20260901192904 67 27 0.9 2.6 0.00 0.00 0.00 91 1020.7
20260901192404 67 28 1.7 4.3 0.00 0.00 0.00 91 1020.6
20260901191905 67 23 2.6 4.3 0.00 0.00 0.00 91 1020.6
20260901191404 68 14 2.6 7.8 0.00 0.00 0.00 90 1020.6
20260901190405 68 1 2.6 5.2 0.00 0.00 0.00 90 1020.5
20260901185904 68 26 3.5 6.1 0.00 0.00 0.00 90 1020.5
20260901185405 68 37 1.7 6.1 0.00 0.00 0.00 90 1020.5
20260901184905 68 36 4.3 7.8 0.00 0.00 0.00 90 1020.6
20260901184404 68 15 1.7 7.8 0.00 0.00 0.00 90 1020.6
20260901183904 68 38 4.3 10.4 0.00 0.00 0.00 90 1020.6
20260901183404 68 26 5.2 10.4 0.00 0.00 0.00 90 1020.5
20260901182904 68 25 7.8 10.4 0.00 0.00 0.00 90 1020.5
20260901182404 68 19 5.2 11.3 0.00 0.00 0.00 90 1020.6
20260901181904 68 8 7.8 11.3 0.00 0.00 0.00 90 1020.7
20260901181404 68 39 3.5 11.3 0.00 0.00 0.00 90 1020.6
20260901180904 68 15 5.2 11.3 0.00 0.00 0.00 90 1020.5
20260901180404 68 15 6.1 13.0 0.00 0.00 0.00 90 1020.4
20260901175404 69 9 8.7 13.0 0.00 0.00 0.00 89 1020.5
20260901174904 69 22 7.0 13.0 0.00 0.00 0.00 89 1020.5
20260901174404 69 18 9.6 13.9 0.00 0.00 0.00 88 1020.5
20260901173904 69 15 7.8 13.0 0.00 0.00 0.00 88 1020.3
20260901173404 69 26 4.3 13.9 0.00 0.00 0.00 88 1020.4
20260901172903 69 34 9.6 13.9 0.00 0.00 0.00 88 1020.3
20260901172405 69 26 7.8 14.8 0.00 0.00 0.00 87 1020.3
20260901171904 69 36 9.6 17.4 0.00 0.00 0.00 87 1020.2
20260901171404 69 19 7.8 15.6 0.00 0.00 0.00 87 1020.2
20260901170905 70 38 8.7 15.6 0.00 0.00 0.00 86 1020.2
20260901170404 70 19 10.4 15.6 0.00 0.00 0.00 86 1020.1
20260901165904 70 21 6.1 13.9 0.00 0.00 0.00 86 1019.9
20260901164904 71 17 7.0 13.9 0.00 0.00 0.00 85 1019.8
20260901164404 71 5 7.0 13.9 0.00 0.00 0.00 85 1019.7
20260901162904 71 31 8.7 14.8 0.00 0.00 0.00 85 1019.5
20260901162404 71 16 7.8 14.8 0.00 0.00 0.00 85 1019.5
20260901161904 71 1 9.6 17.4 0.00 0.00 0.00 85 1019.5
20260901161404 71 4 11.3 19.1 0.00 0.00 0.00 84 1019.4
20260901160904 72 6 8.7 15.6 0.00 0.00 0.00 83 1019.4
20260901160404 71 6 10.4 18.2 0.00 0.00 0.00 83 1019.2
20260901155904 72 25 8.7 13.0 0.00 0.00 0.00 83 1019.1
20260901155404 72 17 10.4 15.6 0.00 0.00 0.00 82 1019.1
20260901154904 72 13 5.2 15.6 0.00 0.00 0.00 83 1019.0
20260901154404 72 14 7.8 15.6 0.00 0.00 0.00 82 1019.0
20260901153904 72 349 8.7 12.2 0.00 0.00 0.00 82 1018.9
20260901153404 72 11 7.8 13.9 0.00 0.00 0.00 81 1018.9
20260901152904 72 14 7.8 14.8 0.00 0.00 0.00 82 1018.8
20260901152404 72 18 10.4 17.4 0.00 0.00 0.00 81 1018.8
20260901151904 72 14 8.7 13.0 0.00 0.00 0.00 81 1018.8
20260901151404 73 8 7.8 14.8 0.00 0.00 0.00 80 1018.7
20260901150904 73 39 5.2 12.2 0.00 0.00 0.00 80 1018.8
20260901150404 73 22 10.4 15.6 0.00 0.00 0.00 78 1018.9
20260901145904 74 24 8.7 14.8 0.00 0.00 0.00 76 1018.8
20260901145403 74 7 5.2 12.2 0.00 0.00 0.00 77 1018.8
20260901144904 73 350 5.2 12.2 0.00 0.00 0.00 76 1018.9
20260901144404 74 0 5.2 13.0 0.00 0.00 0.00 75 1018.9
20260901143404 74 326 2.6 10.4 0.00 0.00 0.00 76 1018.8
20260901142904 74 44 8.7 13.0 0.00 0.00 0.00 75 1018.9
20260901142404 74 358 2.6 10.4 0.00 0.00 0.00 76 1018.9
20260901141904 73 308 2.6 11.3 0.00 0.00 0.00 76 1018.9
20260901141404 73 79 3.5 12.2 0.00 0.00 0.00 76 1018.8
20260901135903 73 352 5.2 10.4 0.00 0.00 0.00 75 1018.8
20260901135405 73 34 3.5 7.8 0.00 0.00 0.00 76 1018.9
20260901134904 73 356 1.7 11.3 0.00 0.00 0.00 75 1019.1
20260901134404 73 13 5.2 11.3 0.00 0.00 0.00 75 1019.2
20260901133904 73 169 1.7 4.3 0.00 0.00 0.00 75 1019.1
20260901133404 73 46 1.7 6.1 0.00 0.00 0.00 75 1019.2
20260901132904 73 16 6.1 10.4 0.00 0.00 0.00 76 1019.3
20260901132404 73 27 4.3 10.4 0.00 0.00 0.00 74 1019.2
20260901131904 74 20 0.9 5.2 0.00 0.00 0.00 72 1019.2
20260901131404 73 88 0.9 2.6 0.00 0.00 0.00 72 1019.3
20260901130904 73 109 0.9 4.3 0.00 0.00 0.00 73 1019.5
20260901130404 73 96 2.6 7.0 0.00 0.00 0.00 72 1019.5
20260901125904 73 75 5.2 8.7 0.00 0.00 0.00 72 1019.8
20260901125404 73 341 2.6 6.1 0.00 0.00 0.00 73 1019.8
20260901124404 72 62 0.9 4.3 0.00 0.00 0.00 73 1020.2
20260901123904 72 357 0.0 4.3 0.00 0.00 0.00 74 1020.2
20260901123403 72 38 1.7 2.6 0.00 0.00 0.00 74 1020.2
20260901122904 72 80 1.7 7.0 0.00 0.00 0.00 75 1020.3
20260901121905 72 95 1.7 2.6 0.00 0.00 0.00 74 1020.4
20260901121404 71 90 1.7 6.1 0.00 0.00 0.00 75 1020.4
20260901120904 71 171 0.9 4.3 0.00 0.00 0.00 77 1020.5
20260901120404 70 28 0.0 4.3 0.00 0.00 0.00 77 1020.6
20260901115404 70 22 0.9 2.6 0.00 0.00 0.00 78 1020.6
20260901114904 70 295 0.9 2.6 0.00 0.00 0.00 78 1020.6
20260901114404 70 27 0.9 4.3 0.00 0.00 0.00 78 1020.7
20260901112904 70 185 0.0 4.3 0.00 0.00 0.00 79 1020.6
20260901112403 70 180 2.6 6.1 0.00 0.00 0.00 80 1020.6
20260901111904 69 101 1.7 5.2 0.00 0.00 0.00 80 1020.7
20260901111404 69 103 1.7 5.2 0.00 0.00 0.00 80 1020.6
20260901110904 69 155 2.6 5.2 0.00 0.00 0.00 81 1020.7
20260901110404 69 149 1.7 5.2 0.00 0.00 0.00 81 1020.7
20260901105904 69 161 1.7 5.2 0.00 0.00 0.00 82 1020.7
20260901105404 68 171 1.7 5.2 0.00 0.00 0.00 83 1020.7
20260901104904 68 82 0.9 2.6 0.00 0.00 0.00 82 1020.8
20260901104404 68 164 0.9 2.6 0.00 0.00 0.00 83 1020.8
20260901103904 68 173 0.9 2.6 0.00 0.00 0.00 83 1020.9
20260901103404 68 97 0.9 2.6 0.00 0.00 0.00 83 1020.9
20260901102907 68 79 0.0 2.6 0.00 0.00 0.00 83 1020.9
20260901101904 68 22 1.7 5.2 0.00 0.00 0.00 83 1020.9
20260901100904 68 119 1.7 2.6 0.00 0.00 0.00 84 1020.8
20260901100403 67 40 0.9 2.6 0.00 0.00 0.00 85 1020.9
20260901095904 67 40 0.9 2.6 0.00 0.00 0.00 85 1020.9
20260901095404 67 13 2.6 6.1 0.00 0.00 0.00 85 1020.9
20260901094904 67 5 0.0 0.9 0.00 0.00 0.00 87 1020.9
20260901093904 66 326 0.0 2.6 0.00 0.00 0.00 87 1020.9
20260901093404 66 229 0.9 2.6 0.00 0.00 0.00 87 1020.8
20260901092904 66 276 0.9 2.6 0.00 0.00 0.00 88 1020.8
20260901092404 66 296 0.9 2.6 0.00 0.00 0.00 90 1020.7
20260901091904 65 297 0.0 0.9 0.00 0.00 0.00 92 1020.7
20260901091404 65 298 0.0 1.7 0.00 0.00 0.00 93 1020.7
20260901090904 65 298 0.9 2.6 0.00 0.00 0.00 94 1020.7
20260901090404 64 296 0.0 2.6 0.00 0.00 0.00 94 1020.7
20260901085904 64 292 0.9 2.6 0.00 0.00 0.00 94 1020.6
20260901085405 64 291 2.6 4.3 0.00 0.00 0.00 94 1020.6
20260901084404 64 212 0.0 0.9 0.00 0.00 0.00 95 1020.6
20260901083905 64 211 0.0 1.7 0.00 0.00 0.00 96 1020.5
20260901083404 64 180 0.0 1.7 0.00 0.00 0.00 96 1020.4
20260901082403 63 179 0.0 0.0 0.00 0.00 0.00 96 1020.4
20260901081904 63 179 0.0 0.0 0.00 0.00 0.00 96 1020.3
20260901075404 63 86 0.9 2.6 0.00 0.00 0.00 96 1020.3
20260901074904 63 70 0.0 1.7 0.00 0.00 0.00 96 1020.3
20260901074404 62 69 0.0 0.0 0.00 0.00 0.00 96 1020.2
20260901073907 62 69 0.0 0.0 0.00 0.00 0.00 97 1020.2
20260901073404 62 69 0.0 0.0 0.00 0.00 0.00 97 1020.2
20260901072404 62 69 0.0 0.9 0.00 0.00 0.00 97 1020.1
20260901071904 62 69 0.9 2.6 0.00 0.00 0.00 97 1020.1
20260901071403 62 68 0.9 1.7 0.00 0.00 0.00 97 1020.1
20260901070404 61 65 0.0 0.0 0.00 0.00 0.00 97 1020.2
20260901065904 61 65 0.0 0.0 0.00 0.00 0.00 97 1020.2
20260901065404 61 65 0.0 0.0 0.00 0.00 0.00 97 1020.1
20260901064904 61 65 0.0 0.0 0.00 0.00 0.00 97 1020.2
20260901064404 61 65 0.0 0.0 0.00 0.00 0.00 97 1020.2
20260901063904 61 65 0.0 0.0 0.00 0.00 0.00 97 1020.1
20260901063404 61 65 0.0 0.0 0.00 0.00 0.00 97 1020.1
20260901062904 61 65 0.0 0.9 0.00 0.00 0.00 97 1020.1
20260901062404 61 65 0.0 0.0 0.00 0.00 0.00 97 1020.1
20260901061404 61 66 0.0 0.0 0.00 0.00 0.00 97 1019.9
20260901060904 61 66 0.0 0.0 0.00 0.00 0.00 96 1019.9
20260901060404 61 66 0.0 0.0 0.00 0.00 0.00 96 1019.9
20260901055904 61 66 0.0 0.0 0.00 0.00 0.00 96 1019.8
20260901055403 61 66 0.9 1.7 0.00 0.00 0.00 96 1019.8
20260901054904 61 66 0.9 1.7 0.00 0.00 0.00 96 1019.8
20260901054404 61 62 0.0 0.0 0.00 0.00 0.00 96 1019.7
20260901053904 61 62 0.0 0.0 0.00 0.00 0.00 96 1019.7
20260901053404 61 62 0.0 0.0 0.00 0.00 0.00 96 1019.7
20260901052904 61 62 0.0 0.0 0.00 0.00 0.00 96 1019.7
20260901052404 61 62 0.0 0.0 0.00 0.00 0.00 96 1019.7
20260901051904 61 62 0.0 0.0 0.00 0.00 0.00 96 1019.6
20260901051404 61 62 0.0 0.0 0.00 0.00 0.00 95 1019.6
20260901050904 61 62 0.0 0.0 0.00 0.00 0.00 95 1019.6
20260901050404 61 62 0.0 1.7 0.00 0.00 0.00 95 1019.6
20260901045904 61 62 0.0 0.9 0.00 0.00 0.00 95 1019.7
20260901045404 61 63 0.0 0.0 0.00 0.00 0.00 95 1019.7
20260901044904 61 63 0.0 1.7 0.00 0.00 0.00 95 1019.6
20260901044404 62 63 0.9 2.6 0.00 0.00 0.00 95 1019.6
20260901043905 62 63 0.0 1.7 0.00 0.00 0.00 94 1019.6
20260901043404 62 63 0.0 2.6 0.00 0.00 0.00 94 1019.6
20260901042904 62 64 1.7 4.3 0.00 0.00 0.00 94 1019.5
20260901042404 62 61 0.0 2.6 0.00 0.00 0.00 94 1019.5
20260901035404 62 61 0.0 1.7 0.00 0.00 0.00 95 1019.7
20260901034904 62 61 0.0 1.7 0.00 0.00 0.00 95 1019.7
20260901034404 62 62 0.0 0.9 0.00 0.00 0.00 95 1019.6
20260901033904 62 62 0.0 1.7 0.00 0.00 0.00 95 1019.7
20260901033404 62 62 0.0 1.7 0.00 0.00 0.00 95 1019.7
20260901032904 62 61 1.7 2.6 0.00 0.00 0.00 95 1019.7
20260901031904 62 61 0.9 2.6 0.00 0.00 0.00 95 1019.8
20260901031405 62 60 0.9 2.6 0.00 0.00 0.00 95 1020.0
20260901030904 62 59 0.0 1.7 0.00 0.00 0.00 95 1020.0
20260901030404 62 59 0.0 1.7 0.00 0.00 0.00 95 1020.1
20260901025904 62 58 0.0 2.6 0.00 0.00 0.00 95 1020.2
20260901025404 62 54 0.9 2.6 0.00 0.00 0.00 95 1020.1
20260901024404 62 59 2.6 7.8 0.00 0.00 0.00 94 1020.2
20260901023405 62 89 2.6 7.0 0.00 0.00 0.00 94 1020.2
20260901022904 63 74 1.7 5.2 0.00 0.00 0.00 94 1020.2
20260901022404 63 59 0.9 4.3 0.00 0.00 0.00 94 1020.2
20260901021904 63 68 3.5 5.2 0.00 0.00 0.00 94 1020.3
20260901021404 63 68 2.6 6.1 0.00 0.00 0.00 93 1020.4
20260901020904 63 54 2.6 7.8 0.00 0.00 0.00 93 1020.4
20260901020404 63 58 4.3 7.8 0.00 0.00 0.00 94 1020.4
20260901015904 63 30 0.0 7.0 0.00 0.00 0.00 94 1020.5
20260901015407 63 44 2.6 5.2 0.00 0.00 0.00 93 1020.6
20260901014904 63 79 1.7 6.1 0.00 0.00 0.00 93 1020.6
20260901014404 64 54 0.9 4.3 0.00 0.00 0.00 93 1020.7
20260901013904 64 47 4.3 7.0 0.00 0.00 0.00 93 1020.6
20260901013404 64 27 2.6 7.0 0.00 0.00 0.00 93 1020.5
20260901012904 64 59 4.3 7.8 0.00 0.00 0.00 93 1020.6
20260901012404 64 81 2.6 5.2 0.00 0.00 0.00 93 1020.6
20260901011904 64 69 0.0 2.6 0.00 0.00 0.00 93 1020.6
20260901011404 64 48 1.7 5.2 0.00 0.00 0.00 93 1020.7
20260901010904 64 49 2.6 7.8 0.00 0.00 0.00 93 1020.7
20260901010404 64 42 1.7 6.1 0.00 0.00 0.00 92 1020.8
20260901005904 64 60 3.5 7.0 0.00 0.00 0.00 92 1020.8
20260901004904 64 66 0.9 2.6 0.00 0.00 0.00 92 1020.9
20260901004404 64 39 1.7 2.6 0.00 0.00 0.00 92 1020.9
20260901003905 64 37 0.9 4.3 0.00 0.00 0.00 92 1020.9
20260901003404 64 63 1.7 4.3 0.00 0.00 0.00 92 1020.9
20260901002904 64 44 2.6 5.2 0.00 0.00 0.00 92 1020.9
20260901002404 64 48 1.7 5.2 0.00 0.00 0.00 92 1021.0
20260901001904 64 53 0.9 5.2 0.00 0.00 0.00 93 1021.0
20260901000904 64 46 0.0 2.6 0.00 0.00 0.00 93 1021.2
20260901000405 64 38 0.0 2.6 0.00 0.00 0.00 93 1021.1
20260831235904 64 49 1.7 4.3 0.00 0.00 0.00 93 1021.1
20260831235404 64 44 1.7 4.3 0.00 0.00 0.00 93 1021.2
20260831234905 64 61 2.6 4.3 0.00 0.00 0.00 93 1021.3
20260831234404 64 54 0.9 4.3 0.00 0.00 0.00 93 1021.3
20260831233906 64 61 1.7 2.6 0.00 0.00 0.00 93 1021.3
20260831233414 64 68 1.7 2.6 0.00 0.00 0.00 93 1021.2
20260831232904 64 68 1.7 2.6 0.00 0.00 0.00 93 1021.3
20260831232407 64 70 0.0 2.6 0.00 0.00 0.00 93 1021.4
20260831231903 64 65 1.7 2.6 0.00 0.00 0.00 94 1021.3